TimeEST,TemperatureF,Dew PointF,Humidity,Sea Level PressureIn,VisibilityMPH,Wind Direction,Wind SpeedMPH,Gust SpeedMPH,PrecipitationIn,Events,Conditions,WindDirDegrees,DateUTC
12:53 AM,37.0,27.0,67,29.95,10.0,ENE,3.5,-,N/A,,Overcast,60,2013-03-06 05:53:00
1:53 AM,37.9,28.0,68,29.93,10.0,Variable,3.5,-,N/A,,Overcast,0,2013-03-06 06:53:00
2:53 AM,39.0,30.9,73,29.89,10.0,Variable,4.6,-,N/A,,Clear,0,2013-03-06 07:53:00
3:26 AM,39.2,30.2,70,29.87,10.0,East,6.9,-,N/A,,Overcast,80,2013-03-06 08:26:00
3:53 AM,39.9,30.9,70,29.88,10.0,East,11.5,19.6,N/A,,Overcast,100,2013-03-06 08:53:00
4:15 AM,39.2,30.2,70,29.87,10.0,East,9.2,16.1,N/A,,Mostly Cloudy,90,2013-03-06 09:15:00
4:53 AM,39.9,30.0,68,29.87,10.0,East,8.1,21.9,N/A,,Overcast,90,2013-03-06 09:53:00
5:17 AM,39.2,30.2,70,29.86,10.0,East,19.6,27.6,N/A,,Overcast,90,2013-03-06 10:17:00
5:53 AM,39.0,30.9,73,29.86,10.0,East,15.0,24.2,N/A,,Overcast,80,2013-03-06 10:53:00
6:53 AM,39.9,30.0,68,29.85,10.0,East,11.5,29.9,0.00,,Overcast,80,2013-03-06 11:53:00
7:53 AM,39.9,30.9,70,29.87,10.0,East,13.8,31.1,N/A,,Overcast,80,2013-03-06 12:53:00
8:53 AM,39.9,32.0,73,29.87,10.0,ENE,10.4,25.3,N/A,,Overcast,70,2013-03-06 13:53:00
9:53 AM,39.9,30.9,70,29.86,10.0,East,9.2,32.2,N/A,,Overcast,80,2013-03-06 14:53:00
10:53 AM,39.9,34.0,79,29.85,9.0,ENE,11.5,28.8,0.00,Rain,Light Rain,70,2013-03-06 15:53:00
11:53 AM,41.0,34.0,76,29.83,10.0,East,13.8,31.1,0.00,Rain,Light Rain,80,2013-03-06 16:53:00
12:53 PM,43.0,32.0,65,29.83,10.0,ENE,20.7,36.8,0.00,,Overcast,70,2013-03-06 17:53:00
1:53 PM,43.0,28.9,58,29.82,10.0,ENE,17.3,34.5,N/A,,Overcast,70,2013-03-06 18:53:00
2:53 PM,43.0,28.9,58,29.83,10.0,ENE,18.4,35.7,N/A,,Overcast,70,2013-03-06 19:53:00
3:38 PM,39.2,33.8,81,29.84,4.0,NE,13.8,24.2,0.01,Rain,Light Rain,40,2013-03-06 20:38:00
3:53 PM,39.9,33.1,77,29.86,10.0,ENE,13.8,25.3,0.01,Rain,Light Rain,60,2013-03-06 20:53:00
4:09 PM,39.2,30.2,70,29.85,10.0,NE,11.5,24.2,0.00,,Overcast,40,2013-03-06 21:09:00
4:53 PM,41.0,28.9,62,29.87,10.0,NE,19.6,28.8,0.00,Rain,Light Rain,40,2013-03-06 21:53:00
5:53 PM,42.1,28.0,58,29.87,10.0,NNE,16.1,31.1,0.00,,Overcast,20,2013-03-06 22:53:00
6:53 PM,42.1,27.0,55,29.90,10.0,NNE,13.8,31.1,N/A,,Overcast,20,2013-03-06 23:53:00
7:53 PM,39.9,28.0,63,29.91,10.0,NNE,19.6,31.1,0.00,,Overcast,30,2013-03-07 00:53:00
8:53 PM,39.9,28.0,63,29.92,10.0,NE,25.3,39.1,0.00,Rain,Light Rain,40,2013-03-07 01:53:00
9:53 PM,36.0,30.9,82,29.94,6.0,North,16.1,26.5,0.01,Snow,Light Snow,10,2013-03-07 02:53:00
10:22 PM,35.6,32.0,87,29.92,10.0,North,11.5,18.4,0.00,,Overcast,360,2013-03-07 03:22:00
10:53 PM,36.0,30.0,79,29.94,10.0,North,9.2,17.3,0.00,,Mostly Cloudy,10,2013-03-07 03:53:00
11:53 PM,37.9,26.1,62,29.94,10.0,North,11.5,19.6,N/A,,Overcast,10,2013-03-07 04:53:00